Check out our new BloomSky Weather System.

Active alerts


No alerts


Thunder radar  blitzortung!


Rain radar more information rain snow radar


Visit our other weather sites:

Template documentation
and downloads

And another site



Weather Underground History page Text

Daily Summary for April 10, 2017 Units:  English    Metric   Both
« Previous Day
Next Day »
Daily Weekly Monthly Yearly Custom
  High: Low: Average:
Temperature: 81.1 °F 72.5 °F 74.9 °F
Dew Point: 74.7 °F 66.6 °F 70.2 °F
Humidity: 89 % 74 % 85 %
Wind Speed: 11.0 mph 0.0 mph 4.3 mph
Wind Gust: 19.0 mph - -
Wind:- - SE
Pressure: 30.06 in 29.94 in -
Precipitation: 0.01 in    
Historical Graphs
 
 
Tabular Data for April 10, 2017
Time Temperature Dew Point Pressure Wind Wind Speed Wind Gust Humidity Rainfall Rate (Hourly)
00:01 72.9 °F 66.7 °F 29.97 in East 6.0 mph 12.0 mph 81 % 0.00 in
00:06 72.9 °F 66.7 °F 29.97 in East 6.0 mph 10.0 mph 81 % 0.00 in
00:11 72.9 °F 66.7 °F 29.97 in WSW 1.0 mph 8.0 mph 81 % 0.00 in
00:16 72.9 °F 66.7 °F 29.97 in SE 5.0 mph 7.0 mph 81 % 0.00 in
00:21 72.7 °F 66.6 °F 29.97 in SE 1.0 mph 10.0 mph 81 % 0.00 in
00:26 72.7 °F 66.9 °F 29.97 in East 8.0 mph 10.0 mph 82 % 0.00 in
00:31 72.7 °F 66.9 °F 29.96 in South 9.0 mph 10.0 mph 82 % 0.00 in
00:36 72.9 °F 67.1 °F 29.97 in SSE 3.0 mph 10.0 mph 82 % 0.00 in
00:41 72.7 °F 66.9 °F 29.97 in SE 4.0 mph 10.0 mph 82 % 0.00 in
00:46 72.7 °F 66.9 °F 29.96 in SE 5.0 mph 9.0 mph 82 % 0.00 in
00:51 72.7 °F 66.9 °F 29.96 in SE 4.0 mph 10.0 mph 82 % 0.00 in
00:56 72.7 °F 66.9 °F 29.97 in SSE 7.0 mph 10.0 mph 82 % 0.00 in
01:01 72.7 °F 66.9 °F 29.97 in South 4.0 mph 10.0 mph 82 % 0.00 in
01:06 72.7 °F 66.9 °F 29.97 in SE 9.0 mph 10.0 mph 82 % 0.00 in
01:11 72.7 °F 66.9 °F 29.97 in SSE 4.0 mph 11.0 mph 82 % 0.00 in
01:16 72.7 °F 67.3 °F 29.97 in SE 6.0 mph 11.0 mph 83 % 0.00 in
01:21 72.7 °F 67.3 °F 29.96 in ESE 7.0 mph 11.0 mph 83 % 0.00 in
01:26 72.7 °F 67.3 °F 29.96 in East 5.0 mph 9.0 mph 83 % 0.00 in
01:31 72.7 °F 67.3 °F 29.96 in SE 8.0 mph 8.0 mph 83 % 0.00 in
01:36 72.7 °F 67.3 °F 29.96 in South 7.0 mph 10.0 mph 83 % 0.00 in
01:41 72.7 °F 67.3 °F 29.96 in South 4.0 mph 10.0 mph 83 % 0.00 in
01:46 72.7 °F 67.3 °F 29.95 in South 2.0 mph 10.0 mph 83 % 0.00 in
01:51 72.7 °F 67.3 °F 29.96 in SSE 6.0 mph 10.0 mph 83 % 0.00 in
01:56 72.7 °F 67.3 °F 29.96 in SSE 2.0 mph 8.0 mph 83 % 0.00 in
02:02 72.7 °F 67.3 °F 29.95 in SSE 2.0 mph 8.0 mph 83 % 0.00 in
02:07 72.7 °F 67.6 °F 29.96 in SE 1.0 mph 9.0 mph 84 % 0.00 in
02:09 72.7 °F 67.6 °F 29.95 in SSE 4.0 mph 9.0 mph 84 % 0.00 in
02:14 72.5 °F 67.5 °F 29.95 in SSW 4.0 mph 9.0 mph 84 % 0.00 in
02:19 72.5 °F 67.5 °F 29.95 in SSE 4.0 mph 9.0 mph 84 % 0.00 in
02:24 72.5 °F 67.5 °F 29.95 in SSE 2.0 mph 8.0 mph 84 % 0.00 in
02:29 72.5 °F 67.5 °F 29.95 in SSE 3.0 mph 8.0 mph 84 % 0.00 in
02:34 72.5 °F 67.5 °F 29.95 in SE 3.0 mph 8.0 mph 84 % 0.00 in
02:39 72.5 °F 67.5 °F 29.94 in ESE 3.0 mph 10.0 mph 84 % 0.00 in
02:44 72.5 °F 67.8 °F 29.94 in SE 5.0 mph 10.0 mph 85 % 0.00 in
02:49 72.5 °F 67.8 °F 29.94 in SE 5.0 mph 10.0 mph 85 % 0.00 in
02:54 72.5 °F 67.8 °F 29.94 in SSE 3.0 mph 8.0 mph 85 % 0.00 in
02:59 72.5 °F 67.8 °F 29.94 in SE 3.0 mph 7.0 mph 85 % 0.00 in
03:04 72.5 °F 67.8 °F 29.94 in East 4.0 mph 8.0 mph 85 % 0.00 in
03:09 72.5 °F 67.8 °F 29.94 in East 5.0 mph 8.0 mph 85 % 0.00 in
03:14 72.5 °F 68.0 °F 29.94 in SE 6.0 mph 8.0 mph 86 % 0.00 in
03:19 72.5 °F 68.0 °F 29.94 in SE 2.0 mph 8.0 mph 86 % 0.00 in
03:24 72.5 °F 68.0 °F 29.94 in SSE 2.0 mph 8.0 mph 86 % 0.00 in
03:29 72.5 °F 68.0 °F 29.94 in SSE 1.0 mph 8.0 mph 86 % 0.00 in
03:34 72.5 °F 68.0 °F 29.94 in ESE 4.0 mph 8.0 mph 86 % 0.00 in
03:44 72.7 °F 68.2 °F 29.94 in ESE 7.0 mph 8.0 mph 86 % 0.00 in
03:49 72.7 °F 68.2 °F 29.94 in SSE 4.0 mph 8.0 mph 86 % 0.00 in
03:54 72.7 °F 68.2 °F 29.94 in SE 3.0 mph 8.0 mph 86 % 0.00 in
03:59 72.7 °F 68.2 °F 29.94 in East 3.0 mph 8.0 mph 86 % 0.00 in
04:04 72.7 °F 68.2 °F 29.94 in SSE 2.0 mph 8.0 mph 86 % 0.00 in
04:09 72.7 °F 68.2 °F 29.94 in ESE 4.0 mph 8.0 mph 86 % 0.00 in
04:14 72.7 °F 68.5 °F 29.94 in ESE 1.0 mph 7.0 mph 87 % 0.00 in
04:19 72.7 °F 68.5 °F 29.94 in SE 4.0 mph 7.0 mph 87 % 0.00 in
04:24 72.7 °F 68.5 °F 29.94 in South 3.0 mph 7.0 mph 87 % 0.00 in
04:29 72.7 °F 68.5 °F 29.94 in SSE 5.0 mph 7.0 mph 87 % 0.00 in
04:34 72.7 °F 68.5 °F 29.94 in SE 5.0 mph 8.0 mph 87 % 0.00 in
04:39 72.7 °F 68.5 °F 29.94 in SE 4.0 mph 8.0 mph 87 % 0.00 in
04:44 72.9 °F 68.7 °F 29.94 in South 5.0 mph 8.0 mph 87 % 0.00 in
04:49 72.9 °F 68.7 °F 29.94 in ESE 5.0 mph 8.0 mph 87 % 0.00 in
04:54 72.9 °F 68.7 °F 29.94 in SE 3.0 mph 8.0 mph 87 % 0.00 in
04:59 72.9 °F 68.7 °F 29.94 in SSE 3.0 mph 8.0 mph 87 % 0.00 in
05:04 72.9 °F 68.7 °F 29.94 in SSE 4.0 mph 9.0 mph 87 % 0.00 in
05:09 72.9 °F 69.1 °F 29.94 in SE 5.0 mph 9.0 mph 88 % 0.00 in
05:14 72.7 °F 68.9 °F 29.94 in SSW 5.0 mph 9.0 mph 88 % 0.00 in
05:19 72.7 °F 68.9 °F 29.94 in SSE 7.0 mph 8.0 mph 88 % 0.00 in
05:24 72.7 °F 68.9 °F 29.94 in SE 3.0 mph 8.0 mph 88 % 0.00 in
05:26 72.7 °F 68.9 °F 29.94 in SSE 3.0 mph 9.0 mph 88 % 0.00 in
05:31 72.7 °F 68.9 °F 29.94 in ESE 5.0 mph 9.0 mph 88 % 0.00 in
05:36 72.7 °F 68.9 °F 29.94 in SSE 3.0 mph 10.0 mph 88 % 0.00 in
05:41 72.7 °F 68.9 °F 29.94 in South 4.0 mph 11.0 mph 88 % 0.00 in
05:46 72.9 °F 69.1 °F 29.94 in ESE 2.0 mph 11.0 mph 88 % 0.00 in
05:51 72.9 °F 69.1 °F 29.94 in South 6.0 mph 11.0 mph 88 % 0.00 in
05:56 72.7 °F 68.9 °F 29.94 in SE 3.0 mph 8.0 mph 88 % 0.00 in
06:01 72.7 °F 68.9 °F 29.94 in SSE 2.0 mph 8.0 mph 88 % 0.00 in
06:06 72.9 °F 69.1 °F 29.95 in SE 4.0 mph 8.0 mph 88 % 0.00 in
06:11 72.9 °F 69.1 °F 29.95 in SSE 2.0 mph 10.0 mph 88 % 0.00 in
06:16 72.9 °F 69.1 °F 29.95 in South 5.0 mph 10.0 mph 88 % 0.00 in
06:21 72.9 °F 69.1 °F 29.95 in SSE 3.0 mph 10.0 mph 88 % 0.00 in
06:26 72.9 °F 69.1 °F 29.96 in SSE 2.0 mph 9.0 mph 88 % 0.00 in
06:27 72.9 °F 69.1 °F 29.96 in SSE 5.0 mph 9.0 mph 88 % 0.00 in
06:32 72.9 °F 69.1 °F 29.96 in SSW 3.0 mph 8.0 mph 88 % 0.00 in
06:37 72.9 °F 69.1 °F 29.96 in SSW 2.0 mph 8.0 mph 88 % 0.00 in
06:42 72.9 °F 69.1 °F 29.96 in SE 3.0 mph 8.0 mph 88 % 0.00 in
06:47 72.9 °F 69.4 °F 29.96 in SE 7.0 mph 8.0 mph 89 % 0.00 in
06:52 72.9 °F 69.4 °F 29.96 in SE 3.0 mph 10.0 mph 89 % 0.00 in
06:57 73.0 °F 69.6 °F 29.96 in ESE 1.0 mph 10.0 mph 89 % 0.00 in
07:02 73.0 °F 69.6 °F 29.96 in SE 5.0 mph 10.0 mph 89 % 0.00 in
07:07 73.0 °F 69.6 °F 29.96 in SSE 4.0 mph 8.0 mph 89 % 0.00 in
07:12 73.2 °F 69.8 °F 29.96 in ESE 3.0 mph 8.0 mph 89 % 0.00 in
07:17 73.2 °F 69.4 °F 29.96 in SE 5.0 mph 8.0 mph 88 % 0.00 in
07:22 73.2 °F 69.4 °F 29.96 in SE 5.0 mph 8.0 mph 88 % 0.00 in
07:27 73.2 °F 69.4 °F 29.96 in SSE 4.0 mph 8.0 mph 88 % 0.00 in
07:32 73.2 °F 69.4 °F 29.97 in SSE 3.0 mph 8.0 mph 88 % 0.00 in
07:37 73.4 °F 69.6 °F 29.97 in SSE 1.0 mph 8.0 mph 88 % 0.00 in
07:42 73.6 °F 69.8 °F 29.97 in SSE 2.0 mph 8.0 mph 88 % 0.00 in
07:47 73.6 °F 69.8 °F 29.97 in SSE 4.0 mph 7.0 mph 88 % 0.00 in
07:52 73.6 °F 69.8 °F 29.98 in SSE 6.0 mph 8.0 mph 88 % 0.00 in
07:57 73.6 °F 70.2 °F 29.98 in South 5.0 mph 8.0 mph 89 % 0.00 in
08:02 73.6 °F 70.2 °F 29.98 in SE 5.0 mph 8.0 mph 89 % 0.00 in
08:07 73.6 °F 70.2 °F 29.98 in SSE 4.0 mph 8.0 mph 89 % 0.00 in
08:12 73.6 °F 70.2 °F 29.99 in SE 7.0 mph 8.0 mph 89 % 0.00 in
08:17 73.6 °F 70.2 °F 29.99 in South 5.0 mph 8.0 mph 89 % 0.00 in
08:22 73.8 °F 70.3 °F 29.99 in SSE 7.0 mph 8.0 mph 89 % 0.00 in
08:27 73.8 °F 70.3 °F 29.99 in East 5.0 mph 8.0 mph 89 % 0.00 in
08:32 73.8 °F 70.3 °F 29.99 in SE 3.0 mph 8.0 mph 89 % 0.00 in
08:37 73.8 °F 70.3 °F 30.00 in SSE 3.0 mph 8.0 mph 89 % 0.00 in
08:42 73.8 °F 70.3 °F 30.00 in SE 3.0 mph 8.0 mph 89 % 0.00 in
08:48 73.9 °F 70.5 °F 30.00 in SE 4.0 mph 9.0 mph 89 % 0.00 in
08:53 74.1 °F 70.7 °F 30.00 in SSE 4.0 mph 9.0 mph 89 % 0.00 in
08:58 74.1 °F 70.3 °F 30.00 in WSW 6.0 mph 9.0 mph 88 % 0.00 in
09:02 74.3 °F 70.5 °F 30.00 in SE 2.0 mph 9.0 mph 88 % 0.00 in
09:13 74.7 °F 70.9 °F 30.00 in ESE 4.0 mph 9.0 mph 88 % 0.00 in
09:18 74.7 °F 70.5 °F 30.01 in South 4.0 mph 9.0 mph 87 % 0.00 in
09:23 74.7 °F 70.5 °F 30.01 in SE 4.0 mph 10.0 mph 87 % 0.00 in
09:28 74.8 °F 70.7 °F 30.01 in SSE 6.0 mph 10.0 mph 87 % 0.00 in
09:33 74.8 °F 70.7 °F 30.01 in ESE 5.0 mph 10.0 mph 87 % 0.00 in
09:38 75.0 °F 70.9 °F 30.01 in SE 6.0 mph 10.0 mph 87 % 0.00 in
09:43 75.0 °F 70.9 °F 30.01 in SSE 3.0 mph 11.0 mph 87 % 0.00 in
09:48 75.2 °F 70.7 °F 30.01 in SE 6.0 mph 11.0 mph 86 % 0.00 in
09:58 75.6 °F 71.1 °F 30.02 in SE 5.0 mph 11.0 mph 86 % 0.00 in
10:03 75.7 °F 71.2 °F 30.02 in South 7.0 mph 12.0 mph 86 % 0.00 in
10:08 75.7 °F 70.9 °F 30.02 in SE 6.0 mph 12.0 mph 85 % 0.00 in
10:13 75.9 °F 71.1 °F 30.02 in ESE 5.0 mph 12.0 mph 85 % 0.00 in
10:18 76.1 °F 71.2 °F 30.03 in ESE 4.0 mph 10.0 mph 85 % 0.00 in
10:23 76.3 °F 71.4 °F 30.03 in East 4.0 mph 9.0 mph 85 % 0.00 in
10:28 76.3 °F 71.1 °F 30.03 in ESE 5.0 mph 8.0 mph 84 % 0.00 in
10:34 76.5 °F 71.6 °F 30.03 in SE 9.0 mph 10.0 mph 85 % 0.00 in
10:39 76.6 °F 71.4 °F 30.03 in SE 4.0 mph 10.0 mph 84 % 0.00 in
10:44 76.8 °F 71.2 °F 30.03 in SSE 6.0 mph 11.0 mph 83 % 0.00 in
10:49 76.8 °F 71.2 °F 30.03 in SSW 8.0 mph 12.0 mph 83 % 0.00 in
10:54 77.0 °F 71.4 °F 30.03 in SE 4.0 mph 14.0 mph 83 % 0.00 in
10:59 77.4 °F 71.8 °F 30.04 in SSE 9.0 mph 14.0 mph 83 % 0.00 in
11:04 77.7 °F 71.4 °F 30.04 in SE 4.0 mph 14.0 mph 81 % 0.00 in
11:09 78.1 °F 71.8 °F 30.04 in ESE 4.0 mph 11.0 mph 81 % 0.00 in
11:14 78.4 °F 72.1 °F 30.04 in SE 4.0 mph 11.0 mph 81 % 0.00 in
11:19 78.3 °F 71.6 °F 30.04 in SE 8.0 mph 11.0 mph 80 % 0.00 in
11:24 78.1 °F 71.8 °F 30.04 in SE 9.0 mph 10.0 mph 81 % 0.00 in
11:29 78.1 °F 71.4 °F 30.04 in ESE 4.0 mph 12.0 mph 80 % 0.00 in
11:34 78.1 °F 71.8 °F 30.04 in South 3.0 mph 12.0 mph 81 % 0.00 in
11:35 78.1 °F 71.8 °F 30.05 in South 3.0 mph 12.0 mph 81 % 0.00 in
11:40 77.7 °F 71.4 °F 30.05 in SSE 5.0 mph 12.0 mph 81 % 0.00 in
11:45 78.1 °F 72.1 °F 30.05 in ESE 6.0 mph 11.0 mph 82 % 0.00 in
11:55 79.3 °F 72.7 °F 30.04 in SE 4.0 mph 11.0 mph 80 % 0.00 in
12:00 79.5 °F 72.5 °F 30.04 in SE 2.0 mph 9.0 mph 79 % 0.00 in
12:05 79.3 °F 72.0 °F 30.05 in South 2.0 mph 10.0 mph 78 % 0.00 in
12:10 79.5 °F 72.1 °F 30.05 in South 4.0 mph 10.0 mph 78 % 0.00 in
12:15 79.5 °F 72.1 °F 30.05 in ENE 8.0 mph 12.0 mph 78 % 0.00 in
12:20 79.3 °F 72.0 °F 30.04 in SE 6.0 mph 12.0 mph 78 % 0.00 in
12:25 79.5 °F 72.5 °F 30.04 in SE 5.0 mph 12.0 mph 79 % 0.00 in
12:30 79.7 °F 71.8 °F 30.04 in SE 7.0 mph 10.0 mph 77 % 0.00 in
12:35 79.7 °F 71.8 °F 30.04 in SE 3.0 mph 10.0 mph 77 % 0.00 in
12:40 79.9 °F 71.6 °F 30.04 in ESE 3.0 mph 10.0 mph 76 % 0.00 in
12:45 80.2 °F 72.3 °F 30.04 in SE 8.0 mph 9.0 mph 77 % 0.00 in
12:50 80.6 °F 72.3 °F 30.03 in SE 6.0 mph 11.0 mph 76 % 0.00 in
12:55 81.0 °F 72.3 °F 30.03 in SE 2.0 mph 11.0 mph 75 % 0.00 in
13:00 81.1 °F 72.1 °F 30.03 in ESE 6.0 mph 11.0 mph 74 % 0.00 in
13:05 81.0 °F 72.3 °F 30.03 in SSE 7.0 mph 11.0 mph 75 % 0.00 in
13:10 81.0 °F 72.3 °F 30.03 in South 2.0 mph 11.0 mph 75 % 0.00 in
13:15 80.4 °F 72.1 °F 30.03 in SSE 7.0 mph 10.0 mph 76 % 0.00 in
13:20 79.9 °F 72.3 °F 30.03 in SE 6.0 mph 12.0 mph 78 % 0.00 in
13:25 78.8 °F 72.9 °F 30.04 in ESE 3.0 mph 12.0 mph 82 % 0.00 in
13:30 78.3 °F 73.4 °F 30.03 in ESE 2.0 mph 12.0 mph 85 % 0.00 in
13:35 78.1 °F 73.6 °F 30.03 in SSE 3.0 mph 11.0 mph 86 % 0.00 in
13:40 78.3 °F 73.8 °F 30.03 in Calm   6.0 mph 86 % 0.00 in
13:45 78.8 °F 74.7 °F 30.03 in Calm   5.0 mph 87 % 0.00 in
13:50 78.6 °F 73.8 °F 30.03 in ESE 2.0 mph 5.0 mph 85 % 0.00 in
13:55 79.0 °F 74.5 °F 30.02 in East 4.0 mph 5.0 mph 86 % 0.00 in
14:00 78.6 °F 73.4 °F 30.02 in SE 1.0 mph 6.0 mph 84 % 0.00 in
14:05 78.3 °F 73.8 °F 30.02 in ESE 2.0 mph 6.0 mph 86 % 0.01 in
14:10 78.1 °F 74.3 °F 30.02 in Calm   6.0 mph 88 % 0.01 in
14:15 78.1 °F 74.3 °F 30.02 in NE 1.0 mph 4.0 mph 88 % 0.01 in
14:20 77.9 °F 74.1 °F 30.02 in ENE 1.0 mph 2.0 mph 88 % 0.01 in
14:25 78.3 °F 74.5 °F 30.02 in Calm   4.0 mph 88 % 0.01 in
14:30 78.1 °F 74.3 °F 30.02 in SE 1.0 mph 6.0 mph 88 % 0.01 in
14:35 77.9 °F 73.8 °F 30.01 in SE 3.0 mph 9.0 mph 87 % 0.01 in
14:40 78.1 °F 74.3 °F 30.01 in SE 3.0 mph 9.0 mph 88 % 0.01 in
14:45 78.1 °F 73.9 °F 30.01 in East 4.0 mph 9.0 mph 87 % 0.01 in
14:50 78.3 °F 74.1 °F 30.01 in ESE 5.0 mph 7.0 mph 87 % 0.01 in
14:55 78.1 °F 73.6 °F 30.00 in East 4.0 mph 11.0 mph 86 % 0.01 in
15:00 77.5 °F 73.0 °F 30.01 in South 3.0 mph 12.0 mph 86 % 0.01 in
15:06 77.2 °F 73.0 °F 30.01 in SE 5.0 mph 12.0 mph 87 % 0.00 in
15:11 76.8 °F 73.0 °F 30.00 in ESE 2.0 mph 12.0 mph 88 % 0.00 in
15:16 76.8 °F 73.0 °F 30.00 in ESE 2.0 mph 10.0 mph 88 % 0.00 in
15:21 77.0 °F 73.2 °F 30.00 in East 2.0 mph 9.0 mph 88 % 0.00 in
15:26 77.2 °F 73.4 °F 29.99 in SE 4.0 mph 9.0 mph 88 % 0.00 in
15:31 77.5 °F 73.4 °F 29.99 in SE 4.0 mph 9.0 mph 87 % 0.00 in
15:36 77.7 °F 73.6 °F 30.00 in ESE 4.0 mph 12.0 mph 87 % 0.00 in
15:41 77.7 °F 73.2 °F 30.00 in SE 6.0 mph 12.0 mph 86 % 0.00 in
15:46 78.1 °F 73.6 °F 29.99 in NE 6.0 mph 12.0 mph 86 % 0.00 in
15:51 78.1 °F 73.6 °F 29.99 in ENE 4.0 mph 12.0 mph 86 % 0.00 in
15:56 78.3 °F 73.0 °F 29.99 in ESE 11.0 mph 13.0 mph 84 % 0.00 in
16:01 77.7 °F 72.5 °F 30.00 in East 4.0 mph 16.0 mph 84 % 0.00 in
16:06 77.5 °F 72.3 °F 29.99 in SE 3.0 mph 16.0 mph 84 % 0.00 in
16:11 77.5 °F 72.3 °F 29.99 in NE 3.0 mph 16.0 mph 84 % 0.00 in
16:16 77.4 °F 72.1 °F 29.99 in ESE 5.0 mph 12.0 mph 84 % 0.00 in
16:21 77.4 °F 72.1 °F 29.99 in SE 3.0 mph 12.0 mph 84 % 0.00 in
16:26 77.4 °F 72.1 °F 29.99 in SE 2.0 mph 12.0 mph 84 % 0.00 in
16:31 77.2 °F 72.3 °F 29.99 in SE 6.0 mph 12.0 mph 85 % 0.00 in
16:36 77.4 °F 72.5 °F 29.99 in SE 4.0 mph 11.0 mph 85 % 0.00 in
16:41 77.4 °F 72.1 °F 29.99 in SE 3.0 mph 13.0 mph 84 % 0.00 in
16:46 77.2 °F 72.0 °F 29.99 in ESE 8.0 mph 15.0 mph 84 % 0.00 in
16:51 77.0 °F 71.8 °F 29.99 in ESE 6.0 mph 15.0 mph 84 % 0.00 in
16:56 76.8 °F 71.6 °F 29.99 in ESE 11.0 mph 15.0 mph 84 % 0.00 in
17:01 76.8 °F 72.0 °F 29.99 in SSE 4.0 mph 13.0 mph 85 % 0.00 in
17:06 76.8 °F 72.0 °F 29.99 in SSE 7.0 mph 12.0 mph 85 % 0.00 in
17:11 76.6 °F 71.8 °F 29.99 in SE 6.0 mph 12.0 mph 85 % 0.00 in
17:16 76.6 °F 71.8 °F 29.99 in SE 4.0 mph 11.0 mph 85 % 0.00 in
17:21 76.6 °F 71.4 °F 29.99 in East 6.0 mph 11.0 mph 84 % 0.00 in
17:26 76.8 °F 71.6 °F 29.99 in East 8.0 mph 12.0 mph 84 % 0.00 in
17:31 76.8 °F 71.6 °F 29.98 in SE 4.0 mph 12.0 mph 84 % 0.00 in
17:36 76.6 °F 71.4 °F 29.98 in ESE 7.0 mph 13.0 mph 84 % 0.00 in
17:41 76.6 °F 71.4 °F 29.98 in ESE 4.0 mph 15.0 mph 84 % 0.00 in
17:46 76.6 °F 71.4 °F 29.98 in ESE 2.0 mph 15.0 mph 84 % 0.00 in
17:51 76.5 °F 71.2 °F 29.98 in East 2.0 mph 15.0 mph 84 % 0.00 in
17:56 76.5 °F 71.2 °F 29.98 in SSE 2.0 mph 11.0 mph 84 % 0.00 in
18:01 76.6 °F 71.4 °F 29.97 in SE 6.0 mph 11.0 mph 84 % 0.00 in
18:06 76.5 °F 71.2 °F 29.97 in East 6.0 mph 12.0 mph 84 % 0.00 in
18:07 76.5 °F 71.2 °F 29.97 in SE 5.0 mph 12.0 mph 84 % 0.00 in
18:12 76.3 °F 71.1 °F 29.97 in East 6.0 mph 16.0 mph 84 % 0.00 in
18:17 76.3 °F 71.4 °F 29.97 in SSE 5.0 mph 16.0 mph 85 % 0.00 in
18:22 76.1 °F 70.9 °F 29.96 in SE 4.0 mph 16.0 mph 84 % 0.00 in
18:27 75.9 °F 71.1 °F 29.97 in SSE 7.0 mph 19.0 mph 85 % 0.00 in
18:32 75.7 °F 70.9 °F 29.97 in East 6.0 mph 19.0 mph 85 % 0.00 in
18:37 75.6 °F 70.7 °F 29.97 in South 6.0 mph 19.0 mph 85 % 0.00 in
18:42 75.6 °F 70.7 °F 29.97 in South 10.0 mph 13.0 mph 85 % 0.00 in
18:47 75.6 °F 70.7 °F 29.96 in SE 9.0 mph 14.0 mph 85 % 0.00 in
18:52 75.6 °F 70.7 °F 29.97 in SSE 10.0 mph 15.0 mph 85 % 0.00 in
18:57 75.4 °F 70.5 °F 29.97 in SSE 4.0 mph 15.0 mph 85 % 0.00 in
19:02 75.4 °F 70.5 °F 29.98 in SE 5.0 mph 15.0 mph 85 % 0.00 in
19:07 75.4 °F 70.5 °F 29.99 in SE 5.0 mph 11.0 mph 85 % 0.00 in
19:12 75.4 °F 70.5 °F 29.99 in ESE 5.0 mph 12.0 mph 85 % 0.00 in
19:17 75.4 °F 70.5 °F 29.99 in SE 7.0 mph 12.0 mph 85 % 0.00 in
19:22 75.4 °F 70.5 °F 30.00 in SSE 5.0 mph 12.0 mph 85 % 0.00 in
19:27 75.4 °F 70.5 °F 30.00 in SE 3.0 mph 13.0 mph 85 % 0.00 in
19:32 75.2 °F 70.3 °F 30.01 in East 6.0 mph 13.0 mph 85 % 0.00 in
19:37 75.2 °F 70.3 °F 30.01 in SE 3.0 mph 13.0 mph 85 % 0.00 in
19:42 75.0 °F 69.8 °F 30.01 in SSE 6.0 mph 11.0 mph 84 % 0.00 in
19:47 75.0 °F 70.2 °F 30.02 in SSE 3.0 mph 11.0 mph 85 % 0.00 in
19:52 75.0 °F 70.2 °F 30.02 in East 3.0 mph 11.0 mph 85 % 0.00 in
19:57 75.0 °F 70.2 °F 30.02 in East 6.0 mph 10.0 mph 85 % 0.00 in
20:02 74.8 °F 70.0 °F 30.02 in SSE 3.0 mph 10.0 mph 85 % 0.00 in
20:07 74.8 °F 70.0 °F 30.02 in SE 3.0 mph 10.0 mph 85 % 0.00 in
20:12 74.8 °F 70.0 °F 30.02 in ENE 4.0 mph 10.0 mph 85 % 0.00 in
20:17 74.7 °F 70.2 °F 30.02 in South 4.0 mph 11.0 mph 86 % 0.00 in
20:22 74.5 °F 70.0 °F 30.02 in ENE 5.0 mph 11.0 mph 86 % 0.00 in
20:27 74.3 °F 69.8 °F 30.02 in NW 2.0 mph 11.0 mph 86 % 0.00 in
20:32 74.3 °F 69.8 °F 30.02 in East 1.0 mph 9.0 mph 86 % 0.00 in
20:37 74.1 °F 69.6 °F 30.02 in SSW 2.0 mph 9.0 mph 86 % 0.00 in
20:42 73.9 °F 69.8 °F 30.02 in SE 5.0 mph 10.0 mph 87 % 0.00 in
20:47 73.8 °F 69.6 °F 30.01 in East 4.0 mph 10.0 mph 87 % 0.00 in
20:52 73.6 °F 69.8 °F 30.01 in SE 3.0 mph 14.0 mph 88 % 0.00 in
20:57 73.4 °F 69.6 °F 30.01 in SSE 3.0 mph 14.0 mph 88 % 0.00 in
20:58 73.4 °F 69.6 °F 30.01 in ESE 3.0 mph 14.0 mph 88 % 0.00 in
21:08 73.2 °F 69.4 °F 30.01 in SE 5.0 mph 11.0 mph 88 % 0.00 in
21:13 73.2 °F 69.4 °F 30.01 in East 4.0 mph 11.0 mph 88 % 0.00 in
21:18 73.2 °F 69.4 °F 30.02 in East 6.0 mph 11.0 mph 88 % 0.00 in
21:19 73.2 °F 69.4 °F 30.01 in ENE 4.0 mph 11.0 mph 88 % 0.00 in
21:24 73.4 °F 69.3 °F 30.02 in South 2.0 mph 13.0 mph 87 % 0.00 in
21:29 73.4 °F 69.3 °F 30.03 in SE 4.0 mph 13.0 mph 87 % 0.00 in
21:34 73.4 °F 69.3 °F 30.03 in SSE 5.0 mph 13.0 mph 87 % 0.00 in
21:39 73.2 °F 69.1 °F 30.03 in SE 3.0 mph 11.0 mph 87 % 0.00 in
21:44 73.2 °F 69.1 °F 30.03 in ESE 4.0 mph 12.0 mph 87 % 0.00 in
21:49 73.2 °F 69.1 °F 30.03 in SE 6.0 mph 12.0 mph 87 % 0.00 in
21:54 73.2 °F 69.1 °F 30.04 in ESE 5.0 mph 12.0 mph 87 % 0.00 in
21:59 73.2 °F 69.1 °F 30.04 in ESE 6.0 mph 11.0 mph 87 % 0.00 in
22:04 73.0 °F 68.9 °F 30.04 in East 6.0 mph 11.0 mph 87 % 0.00 in
22:09 73.0 °F 68.9 °F 30.05 in ESE 3.0 mph 10.0 mph 87 % 0.00 in
22:14 73.0 °F 68.9 °F 30.06 in ESE 5.0 mph 10.0 mph 87 % 0.00 in
22:19 73.0 °F 68.9 °F 30.06 in SE 2.0 mph 10.0 mph 87 % 0.00 in
22:24 73.0 °F 68.9 °F 30.06 in SSE 2.0 mph 10.0 mph 87 % 0.00 in
22:30 72.9 °F 68.7 °F 30.06 in ESE 6.0 mph 10.0 mph 87 % 0.00 in
22:35 72.9 °F 68.7 °F 30.06 in SSE 3.0 mph 10.0 mph 87 % 0.00 in
22:40 72.9 °F 68.7 °F 30.06 in ESE 1.0 mph 10.0 mph 87 % 0.00 in
22:45 72.9 °F 68.7 °F 30.06 in SE 5.0 mph 10.0 mph 87 % 0.00 in
22:50 72.9 °F 68.7 °F 30.06 in ESE 5.0 mph 10.0 mph 87 % 0.00 in
22:55 72.9 °F 68.7 °F 30.06 in SE 7.0 mph 9.0 mph 87 % 0.00 in
23:00 72.9 °F 68.7 °F 30.06 in SE 3.0 mph 11.0 mph 87 % 0.00 in
23:05 72.9 °F 68.4 °F 30.06 in SE 6.0 mph 11.0 mph 86 % 0.00 in
23:10 72.9 °F 68.4 °F 30.06 in SE 3.0 mph 12.0 mph 86 % 0.00 in
23:15 72.7 °F 68.5 °F 30.05 in SE 5.0 mph 12.0 mph 87 % 0.00 in
23:20 72.7 °F 68.5 °F 30.05 in SSE 5.0 mph 12.0 mph 87 % 0.00 in
23:25 72.7 °F 68.5 °F 30.06 in SSE 4.0 mph 13.0 mph 87 % 0.00 in
23:30 72.7 °F 68.5 °F 30.06 in SE 5.0 mph 13.0 mph 87 % 0.00 in
23:35 72.7 °F 68.5 °F 30.06 in SE 3.0 mph 13.0 mph 87 % 0.00 in
23:40 72.7 °F 68.5 °F 30.06 in SSE 7.0 mph 12.0 mph 87 % 0.00 in
23:45 72.7 °F 68.5 °F 30.06 in East 4.0 mph 11.0 mph 87 % 0.00 in
23:50 72.7 °F 68.5 °F 30.06 in SE 4.0 mph 11.0 mph 87 % 0.00 in
23:55 72.7 °F 68.5 °F 30.06 in ESE 8.0 mph 12.0 mph 87 % 0.00 in
Spring, Texas: Villages of Bridgestone
Compliments of Weather Underground - 2.75 mb

Script developed by  Jim McMurry - jmcmurry@mwt.net Adapted for the template by  Wim van der Kuil - Leuven-Template.eu

You find our weather info also at:

UK Metoffice

WeatherCloud

Weather Underground

Mid-South Weather Network

AWEKAS

Citizen Weather Observer Program (CWOP)

HAMweather, WeatherForYou, PWS Weather

Equipment we use:

Weather-station
Davis Vantage Vue

Weather-program
Meteohub

Weather-server
Debian 7.9 x86 (Guest)

Provider
DreamHost

Davis Vantage Vue

Meteohub

Debian 7.9 x86 (Guest)

DreamHost